sat.trackr.live / text

‹ back to catalog

JILIN-01 KUANFU 02B 1

NORAD 61189 · 2024-169A

PAYLOAD ACTIVE UNKNOWN

§ Identity

Operator
Country
PRC
Launch date
2024-09-20
Launch site
TAISC
Launch vehicle
Mass (kg)
RCS (m²)

External: N2YO · Heavens-Above · Gunter

§ Orbital elements

Epoch: 2026-09-22T21:55:59.865312Z

Period
95.40 min
Inclination
97.5551°
Eccentricity
0.0004094
Mean motion
15.09443469 rev/d
Perigee alt
535.1 km
Apogee alt
540.7 km
Semi-major
6,916.0 km
B*
1.5808e-4
RAAN
353.9602°
Arg perigee
80.4537°
Mean anomaly
279.7155°
Rev number
11,056

§ Raw data

JILIN-01 KUANFU 02B 11 61189U 24169A   26265.91388733  .00002466  00000+0  15808-3 0  99922 61189  97.5551 353.9602 0004094  80.4537 279.7155 15.09443469110565

JSON: /api/v1/satellites/61189 · /tle

For live sub-satellite position, see the globe view (requires WebGL).

§ Visibility from observer

Set your observer location to see the next 7 days of passes ≥ 10°. The values pass through the URL so the page stays shareable.

No JS? Fill the form by hand. The geolocation button needs JavaScript.